Back to catalog

YUNYAO-1 36

AliveWeatherSSO
NORAD 61904·PAYLOAD·🇨🇳 China
This satellite name has not been confirmed by official sources yet.

Launched Nov 11, 2024 from Jiuquan Satellite Launch Center

Loading…

Next Passes (next 24 hours)

TLE

FreshSource: Space-Track

Epoch: Sep 14, 2026, 15:24 UTC

1 61904U 24205L   26257.64225461  .00005064  00000-0  30764-3 0  9993
2 61904  97.4052 324.9757 0067323  59.5853 301.2006 15.09005503101688

Track YUNYAO-1 36 in real time with AllMySat

Download on the App Store